| time (UTC) | temp F | wind direction | speed MPH | gust MPH | rain 1hr in | rain 24hr in | rain mn in | humidity % | barometer mb |
| 20260902011005 | 61 | 287 | 0.0 | 0.0 | 0.00 | 0.00 | 0.00 | 90 | 1020.9 |
| 20260902010005 | 61 | 289 | 0.0 | 0.0 | 0.00 | 0.00 | 0.00 | 90 | 1020.9 |
| 20260902005005 | 61 | 289 | 0.0 | 0.0 | 0.00 | 0.00 | 0.00 | 90 | 1021.2 |
| 20260902004005 | 61 | 288 | 0.0 | 0.0 | 0.00 | 0.00 | 0.00 | 90 | 1021.1 |
| 20260902003005 | 61 | 298 | 0.0 | 0.0 | 0.00 | 0.00 | 0.00 | 90 | 1021.2 |
| 20260902002005 | 61 | 289 | 0.0 | 0.0 | 0.00 | 0.00 | 0.00 | 90 | 1021.1 |
| 20260902001006 | 61 | 296 | 0.0 | 0.0 | 0.00 | 0.00 | 0.00 | 90 | 1021.0 |
| 20260902000005 | 61 | 296 | 0.0 | 0.0 | 0.00 | 0.00 | 0.00 | 90 | 1020.9 |
| 20260901235005 | 61 | 294 | 0.0 | 0.0 | 0.00 | 0.00 | 0.00 | 90 | 1021.0 |
| 20260901234005 | 61 | 295 | 0.0 | 0.0 | 0.00 | 0.00 | 0.00 | 90 | 1021.0 |
| 20260901233005 | 61 | 294 | 0.0 | 0.0 | 0.00 | 0.00 | 0.00 | 90 | 1021.0 |
| 20260901232005 | 61 | 297 | 0.0 | 0.0 | 0.00 | 0.00 | 0.00 | 90 | 1021.1 |
| 20260901231005 | 61 | 298 | 0.0 | 0.0 | 0.00 | 0.00 | 0.00 | 89 | 1021.0 |
| 20260901230005 | 61 | 291 | 0.0 | 0.0 | 0.00 | 0.00 | 0.00 | 89 | 1021.1 |
| 20260901225005 | 61 | 291 | 0.0 | 0.0 | 0.00 | 0.00 | 0.00 | 88 | 1021.0 |
| 20260901223006 | 61 | 290 | 0.0 | 0.0 | 0.00 | 0.00 | 0.00 | 89 | 1021.1 |
| 20260901222005 | 61 | 291 | 0.0 | 0.0 | 0.00 | 0.00 | 0.00 | 88 | 1021.2 |
| 20260901221005 | 61 | 291 | 0.0 | 0.0 | 0.00 | 0.00 | 0.00 | 88 | 1021.2 |
| 20260901220005 | 61 | 292 | 0.0 | 0.0 | 0.00 | 0.00 | 0.00 | 88 | 1021.2 |
| 20260901215005 | 62 | 289 | 0.0 | 3.0 | 0.00 | 0.00 | 0.00 | 88 | 1021.2 |
| 20260901214005 | 62 | 295 | 2.0 | 6.0 | 0.00 | 0.00 | 0.00 | 88 | 1021.4 |
| 20260901213005 | 62 | 292 | 2.0 | 3.0 | 0.00 | 0.00 | 0.00 | 88 | 1021.4 |
| 20260901212005 | 62 | 289 | 1.0 | 3.0 | 0.00 | 0.00 | 0.00 | 87 | 1021.2 |
| 20260901211005 | 62 | 291 | 1.0 | 3.0 | 0.00 | 0.00 | 0.00 | 87 | 1021.3 |
| 20260901210005 | 62 | 296 | 2.0 | 5.0 | 0.00 | 0.00 | 0.00 | 87 | 1021.3 |
| 20260901205005 | 62 | 299 | 2.0 | 3.0 | 0.00 | 0.00 | 0.00 | 87 | 1021.4 |
| 20260901204005 | 62 | 299 | 2.0 | 6.0 | 0.00 | 0.00 | 0.00 | 86 | 1021.3 |
| 20260901203005 | 62 | 280 | 2.0 | 6.0 | 0.00 | 0.00 | 0.00 | 86 | 1021.2 |
| 20260901202004 | 62 | 295 | 3.0 | 7.0 | 0.00 | 0.00 | 0.00 | 86 | 1021.3 |
| 20260901201005 | 62 | 292 | 2.0 | 7.0 | 0.00 | 0.00 | 0.00 | 85 | 1021.2 |
| 20260901200005 | 62 | 284 | 2.0 | 6.0 | 0.00 | 0.00 | 0.00 | 85 | 1021.1 |
| 20260901195004 | 62 | 340 | 2.0 | 6.0 | 0.00 | 0.00 | 0.00 | 84 | 1021.1 |
| 20260901194004 | 62 | 326 | 2.0 | 5.0 | 0.00 | 0.00 | 0.00 | 83 | 1021.0 |
| 20260901193005 | 62 | 317 | 2.0 | 8.0 | 0.00 | 0.00 | 0.00 | 83 | 1021.1 |
| 20260901192004 | 62 | 316 | 2.0 | 8.0 | 0.00 | 0.00 | 0.00 | 82 | 1021.0 |
| 20260901190004 | 63 | 305 | 2.0 | 7.0 | 0.00 | 0.00 | 0.00 | 81 | 1021.0 |
| 20260901185004 | 63 | 331 | 3.0 | 8.0 | 0.00 | 0.00 | 0.00 | 80 | 1021.1 |
| 20260901184005 | 63 | 303 | 3.0 | 8.0 | 0.00 | 0.00 | 0.00 | 80 | 1021.1 |
| 20260901183005 | 63 | 305 | 3.0 | 8.0 | 0.00 | 0.00 | 0.00 | 79 | 1021.1 |
| 20260901182004 | 64 | 307 | 2.0 | 8.0 | 0.00 | 0.00 | 0.00 | 78 | 1021.2 |
| 20260901181007 | 64 | 269 | 2.0 | 9.0 | 0.00 | 0.00 | 0.00 | 77 | 1020.9 |
| 20260901180005 | 65 | 292 | 2.0 | 9.0 | 0.00 | 0.00 | 0.00 | 76 | 1021.0 |
| 20260901175004 | 65 | 263 | 2.0 | 9.0 | 0.00 | 0.00 | 0.00 | 76 | 1020.9 |
| 20260901174008 | 65 | 272 | 2.0 | 8.0 | 0.00 | 0.00 | 0.00 | 75 | 1021.0 |
| 20260901173004 | 66 | 222 | 3.0 | 12.0 | 0.00 | 0.00 | 0.00 | 73 | 1021.1 |
| 20260901172004 | 67 | 298 | 4.0 | 10.0 | 0.00 | 0.00 | 0.00 | 72 | 1021.1 |
| 20260901171004 | 68 | 241 | 5.0 | 12.0 | 0.00 | 0.00 | 0.00 | 70 | 1021.1 |
| 20260901170004 | 68 | 292 | 5.0 | 14.0 | 0.00 | 0.00 | 0.00 | 69 | 1021.0 |
| 20260901165006 | 68 | 228 | 3.0 | 14.0 | 0.00 | 0.00 | 0.00 | 71 | 1021.0 |
| 20260901163006 | 68 | 192 | 2.0 | 9.0 | 0.00 | 0.00 | 0.00 | 72 | 1021.1 |
| 20260901162004 | 67 | 244 | 3.0 | 10.0 | 0.00 | 0.00 | 0.00 | 74 | 1021.0 |
| 20260901155004 | 67 | 286 | 3.0 | 10.0 | 0.00 | 0.00 | 0.00 | 72 | 1021.2 |
| 20260901154004 | 68 | 310 | 5.0 | 14.0 | 0.00 | 0.00 | 0.00 | 72 | 1021.3 |
| 20260901153004 | 68 | 182 | 2.0 | 9.0 | 0.00 | 0.00 | 0.00 | 71 | 1021.2 |
| 20260901152004 | 69 | 247 | 3.0 | 10.0 | 0.00 | 0.00 | 0.00 | 68 | 1021.2 |
| 20260901151004 | 70 | 258 | 3.0 | 12.0 | 0.00 | 0.00 | 0.00 | 66 | 1021.2 |
| 20260901150004 | 69 | 299 | 3.0 | 12.0 | 0.00 | 0.00 | 0.00 | 67 | 1021.2 |
| 20260901145004 | 69 | 305 | 4.0 | 15.0 | 0.00 | 0.00 | 0.00 | 66 | 1021.3 |
| 20260901144007 | 70 | 206 | 3.0 | 12.0 | 0.00 | 0.00 | 0.00 | 67 | 1021.3 |
| 20260901143004 | 70 | 309 | 3.0 | 12.0 | 0.00 | 0.00 | 0.00 | 68 | 1021.2 |
| 20260901142004 | 70 | 225 | 3.0 | 12.0 | 0.00 | 0.00 | 0.00 | 66 | 1021.2 |
| 20260901141004 | 70 | 219 | 4.0 | 14.0 | 0.00 | 0.00 | 0.00 | 68 | 1021.3 |
| 20260901140004 | 70 | 233 | 5.0 | 15.0 | 0.00 | 0.00 | 0.00 | 64 | 1021.4 |
| 20260901135008 | 70 | 292 | 3.0 | 12.0 | 0.00 | 0.00 | 0.00 | 65 | 1021.5 |
| 20260901134004 | 71 | 288 | 6.0 | 12.0 | 0.00 | 0.00 | 0.00 | 60 | 1021.4 |
| 20260901133004 | 71 | 220 | 4.0 | 12.0 | 0.00 | 0.00 | 0.00 | 60 | 1021.4 |
| 20260901132004 | 70 | 159 | 3.0 | 12.0 | 0.00 | 0.00 | 0.00 | 62 | 1021.3 |
| 20260901131004 | 70 | 216 | 5.0 | 14.0 | 0.00 | 0.00 | 0.00 | 60 | 1021.5 |
| 20260901130004 | 71 | 227 | 3.0 | 12.0 | 0.00 | 0.00 | 0.00 | 59 | 1021.5 |
| 20260901125004 | 71 | 204 | 3.0 | 9.0 | 0.00 | 0.00 | 0.00 | 60 | 1021.4 |
| 20260901124004 | 71 | 256 | 3.0 | 12.0 | 0.00 | 0.00 | 0.00 | 59 | 1021.5 |
| 20260901123007 | 70 | 187 | 3.0 | 10.0 | 0.00 | 0.00 | 0.00 | 63 | 1021.5 |
| 20260901122007 | 70 | 236 | 3.0 | 9.0 | 0.00 | 0.00 | 0.00 | 63 | 1021.6 |
| 20260901121006 | 70 | 209 | 3.0 | 12.0 | 0.00 | 0.00 | 0.00 | 60 | 1021.5 |
| 20260901120006 | 71 | 326 | 4.0 | 10.0 | 0.00 | 0.00 | 0.00 | 64 | 1021.5 |
| 20260901115006 | 70 | 266 | 3.0 | 10.0 | 0.00 | 0.00 | 0.00 | 63 | 1021.4 |
| 20260901114006 | 70 | 251 | 3.0 | 12.0 | 0.00 | 0.00 | 0.00 | 62 | 1021.5 |
| 20260901113006 | 70 | 296 | 3.0 | 10.0 | 0.00 | 0.00 | 0.00 | 62 | 1021.5 |
| 20260901112006 | 69 | 237 | 3.0 | 9.0 | 0.00 | 0.00 | 0.00 | 61 | 1021.5 |
| 20260901111006 | 70 | 268 | 3.0 | 9.0 | 0.00 | 0.00 | 0.00 | 61 | 1021.5 |
| 20260901110006 | 69 | 203 | 3.0 | 10.0 | 0.00 | 0.00 | 0.00 | 63 | 1021.5 |
| 20260901103006 | 68 | 302 | 4.0 | 9.0 | 0.00 | 0.00 | 0.00 | 63 | 1021.8 |
| 20260901102007 | 68 | 287 | 2.0 | 8.0 | 0.00 | 0.00 | 0.00 | 63 | 1021.8 |
| 20260901100006 | 67 | 310 | 3.0 | 8.0 | 0.00 | 0.00 | 0.00 | 66 | 1021.9 |
| 20260901095006 | 67 | 282 | 3.0 | 8.0 | 0.00 | 0.00 | 0.00 | 67 | 1021.9 |
| 20260901094006 | 66 | 11 | 2.0 | 7.0 | 0.00 | 0.00 | 0.00 | 68 | 1022.0 |
| 20260901093006 | 66 | 312 | 2.0 | 7.0 | 0.00 | 0.00 | 0.00 | 71 | 1022.1 |
| 20260901092006 | 65 | 333 | 1.0 | 7.0 | 0.00 | 0.00 | 0.00 | 73 | 1022.0 |
| 20260901091006 | 64 | 251 | 2.0 | 6.0 | 0.00 | 0.00 | 0.00 | 75 | 1022.1 |
| 20260901090006 | 63 | 298 | 3.0 | 9.0 | 0.00 | 0.00 | 0.00 | 78 | 1022.0 |
| 20260901085006 | 62 | 301 | 2.0 | 7.0 | 0.00 | 0.00 | 0.00 | 81 | 1022.0 |
| 20260901084006 | 62 | 295 | 4.0 | 7.0 | 0.00 | 0.00 | 0.00 | 84 | 1021.9 |
| 20260901083006 | 61 | 297 | 2.0 | 6.0 | 0.00 | 0.00 | 0.00 | 85 | 1021.9 |
| 20260901081007 | 60 | 288 | 2.0 | 3.0 | 0.00 | 0.00 | 0.00 | 87 | 1021.8 |
| 20260901074006 | 58 | 331 | 1.0 | 3.0 | 0.00 | 0.00 | 0.00 | 91 | 1021.5 |
| 20260901073006 | 57 | 277 | 0.0 | 0.0 | 0.00 | 0.00 | 0.00 | 93 | 1021.3 |
| 20260901071005 | 54 | 283 | 0.0 | 0.0 | 0.00 | 0.00 | 0.00 | 93 | 1021.5 |
| 20260901065006 | 54 | 284 | 0.0 | 0.0 | 0.00 | 0.00 | 0.00 | 92 | 1021.3 |
| 20260901064006 | 54 | 283 | 0.0 | 0.0 | 0.00 | 0.00 | 0.00 | 92 | 1021.3 |
| 20260901063005 | 54 | 283 | 0.0 | 0.0 | 0.00 | 0.00 | 0.00 | 92 | 1021.2 |
| 20260901062005 | 53 | 283 | 0.0 | 0.0 | 0.00 | 0.00 | 0.00 | 91 | 1021.2 |
| 20260901061005 | 53 | 283 | 0.0 | 0.0 | 0.00 | 0.00 | 0.00 | 91 | 1021.0 |
| 20260901054005 | 53 | 283 | 0.0 | 0.0 | 0.00 | 0.00 | 0.00 | 92 | 1020.7 |
| 20260901053006 | 53 | 283 | 0.0 | 0.0 | 0.00 | 0.00 | 0.00 | 92 | 1020.7 |
| 20260901051004 | 53 | 286 | 0.0 | 3.0 | 0.00 | 0.00 | 0.00 | 91 | 1020.7 |
| 20260901050005 | 53 | 285 | 2.0 | 3.0 | 0.00 | 0.00 | 0.00 | 91 | 1020.7 |
| 20260901045005 | 53 | 277 | 1.0 | 3.0 | 0.00 | 0.00 | 0.00 | 91 | 1020.6 |
| 20260901044005 | 53 | 276 | 0.0 | 2.0 | 0.00 | 0.00 | 0.00 | 90 | 1020.6 |
| 20260901043005 | 53 | 277 | 0.0 | 2.0 | 0.00 | 0.00 | 0.00 | 89 | 1020.5 |
| 20260901041005 | 53 | 277 | 1.0 | 2.0 | 0.00 | 0.00 | 0.00 | 90 | 1020.5 |
| 20260901040005 | 54 | 275 | 0.0 | 2.0 | 0.00 | 0.00 | 0.00 | 88 | 1020.4 |
| 20260901034005 | 54 | 275 | 0.0 | 2.0 | 0.00 | 0.00 | 0.00 | 88 | 1020.5 |
| 20260901032006 | 54 | 267 | 1.0 | 3.0 | 0.00 | 0.00 | 0.00 | 88 | 1020.5 |
| 20260901031006 | 54 | 277 | 0.0 | 0.0 | 0.00 | 0.00 | 0.00 | 88 | 1020.6 |
| 20260901030005 | 54 | 280 | 0.0 | 0.0 | 0.00 | 0.00 | 0.00 | 87 | 1020.5 |
| 20260901025005 | 55 | 276 | 0.0 | 0.0 | 0.00 | 0.00 | 0.00 | 87 | 1020.5 |
| 20260901023005 | 55 | 278 | 0.0 | 0.0 | 0.00 | 0.00 | 0.00 | 87 | 1020.5 |
| 20260901022005 | 55 | 278 | 0.0 | 0.0 | 0.00 | 0.00 | 0.00 | 87 | 1020.4 |
| 20260901021006 | 55 | 277 | 0.0 | 0.0 | 0.00 | 0.00 | 0.00 | 86 | 1020.3 |
| 20260901020005 | 55 | 277 | 0.0 | 0.0 | 0.00 | 0.00 | 0.00 | 85 | 1020.4 |
| 20260901015005 | 56 | 275 | 0.0 | 0.0 | 0.00 | 0.00 | 0.00 | 85 | 1020.4 |
| 20260901014005 | 56 | 276 | 0.0 | 3.0 | 0.00 | 0.00 | 0.00 | 85 | 1020.5 |
| 20260901013005 | 56 | 273 | 0.0 | 1.0 | 0.00 | 0.00 | 0.00 | 84 | 1020.4 |